Showing default

TIANTUO 5, 46234

Orbit data source: Space-Track

TIANTUO 5, 46234 is a payload satellite owned by NUDT Changsha (CN) in SSO that was launched on Sun, 23 Aug 2020 UTC via a CHANG ZHENG 2D launch vehicle from the Jiuquan Satellite Launch Center, China (JSC). Payloads include a variety of satellites, spacecraft, and rockets equipped with specific instruments for various scientific and technological missions. These include communications satellites like Starlink; space stations such as the ISS; scientific satellites like the Hubble; Earth observation satellites from companies like Planet Labs, Umbra, and HawkEye 360; GPS; miniature CubeSats for education and research; and military/defense satellites.

Loading next visibility...
TIANTUO 5 details
Identifier
46234, 2020-058C
Orbit
SSO
Last TLE update7 hours ago
Origin
Flag of CNNUDT Changsha (CN / PRC)
ManufacturerNUDT Changsha
MissionOperational Amateur Communications
Bus & MotorTT2, Unknown motor
Mass~20 kg wet, 20 kg dry
Launch date (UTC)
2020-08-23 (4 years ago)
Launch vehicle
CHANG ZHENG 2D
Launch site
Jiuquan Satellite Launch Center, China (JSC)
Object type
Payload
Rocket body
Debris
Shape & HBRBox, 0.7 m
Radar Cross Section0.475 m², Medium (>0.1 m² and < 1m²)

Expand to show TLE details & history

TLE from 7 hours ago
0 TIANTUO 5
1 46234U 20058C   24361.22932402  .00078388  00000-0  92767-3 0  9992
2 46234  97.2704  60.8960 0007510  41.2233 318.9590 15.60981840242507
Epoch: 2024-12-26T05:30Z
Definitive object data (Epoch: 2024-12-26T05:30:13.595Z)
Latitude-0.00006°
Longitude-116.87235°
Altitude384.139 km
Speed7.682 km/s
True Right ascension04h 03m 35s
True Declination0° 00' 00"
Sunlit
Object was in full shadow at TLE epoch
Visualization TLE readout
Latitude-6.39171°
Longitude62.61025°
Altitude393.112 km
Speed7.672 km/s
Apparent Right ascension18h 57m 41s
Apparent Declination-37° 27' 46"
Sunlit
Object is in daylight
Visualization observer readout
Local Sidereal Time11:48:41
Azimuth112.596° SE
Elevation-34.808°
Doppler factor1
Orbital elements
Apogee altitude386.802 km
Perigee altitude376.649 km
Semi-major axis6,759.862 km
Eccentricity0.000751
Inclination97.2704°
RAAN60.896°
Arg. of periapsis41.2233°
True anomaly318.90245°
Mean anomaly318.959°
Eccentric anomaly318.93073°
Mean motion3.90514 °/min
BSTAR0.00092767
Orbital period92.19 mins
Loading maneuver chart data...
Loading historical data...
Loading historical data...
Loading historical data...
Loading historical data...
Loading historical data...
Loading historical data...
Loading historical data...
Other satellites on launch #58 in the year 2020 (2020-08-23 UTC)

TIANTUO 5 Visibility forecast

Observer location: undefined°, undefined

Span
Click to sort rows by Start time (UTC) header in descending order
Start Az.
Max El. time (UTC)
Max El. Az.
Max El.
End time (UTC)
End Az.
5 mins2024-12-26 16:50:10.221Z28.782° NE2024-12-26 16:52:10.221Z91.083° ESE36.243°2024-12-26 16:55:10.221Z175.901° S
|